Starlink 4712

operational
NORAD ID: 53798 Int'l Des: 2022-111 Owner: SPXS Country: US Constellation: starlink
LEOCIRCULAR

Über Starlink 4712

Beschreibung wird geladen...

Live-Position

3D-Globus wird geladen...

Nächste Überflüge

Höhenverlauf

Altitude vs Time

uPlot chart will show altitude changes over time

Zweizeiliger Elementsatz

1 53798U 22111AB 26062.67439100 -.00004286 00000-0 -25144-3 0 9996
2 53798 53.2175 300.7277 0001021 91.9722 268.1387 15.08829820192771
Epoch: 3. März 2026 • Age: 32 hours

Aktueller Status

Höhe 555.7 km
Geschwindigkeit 7.58 km/s
Subsatellitenpunkt -45.22°S, 109.12°W
Startdatum 11. Sept. 2022
Alter 3.4 years
Typ internet

Technische Details

Klassifizierung Payload
Masse 305.00 kg
Trockenmasse 290.00 kg
Gesamtmasse 305.00 kg
Länge 0.20 m
Durchmesser 2.80 m
Spannweite 9.00 m
Form Box + pan
Hersteller SPXS
Bus-Typ Starlink
Phasenstatus In Orbit
Besitzer/Staat SPXS/US

Große Konstellationen

Loading constellations...